Torna al catalogo

DSAT

AttivoScienzaSSO
NORAD 42794·PAYLOAD·🇮🇹 Italy

Lanciato Jun 23, 2017 da Satish Dhawan Space Centre

Loading…

Prossimi Passaggi (prossime 24 ore)

TLE

AggiornatoSource: Space-Track

Epoca: Sep 13, 2026, 21:52 UTC

1 42794U 17036AF  26256.91148895  .00004080  00000-0  18787-3 0  9995
2 42794  97.5663 235.7049 0078736 212.6782 146.9568 15.18129701504310

Traccia DSAT in tempo reale con AllMySat

Download on the App Store